Regional Weather Roundup
Issued by NWS Kansas City/Pleasant Hill, MO

Home | Current Version | Previous Version | Text Only | Print | Product List | Glossary On
Versions: 1 2 3 4 5 6 7 8 9 10 11 12 13 14 15 16 17 18 19 20 21 22 23 24 25 26 27 28
000
ASUS43 KEAX 251310
RWREAX

WEATHER ROUNDUP FOR EASTERN KANSAS AND NORTHWEST MISSOURI
NATIONAL WEATHER SERVICE KANSAS CITY/PLEASANT HILL MO
800 AM CDT TUE APR 25 2017

KSZ040-057-103>105-MOZ028-029-037-043-251400-
...KANSAS CITY METROPOLITAN AREA...

CITY           SKY/WX    TMP DP  RH WIND       PRES   REMARKS
K.C. INTL      CLOUDY    61  47  59 SE14      29.47F
K.C. DOWNTOWN  MOSUNNY   61  47  59 E7        29.48F
LEES SUMMIT    CLOUDY    58  45  62 E6        29.50F
OLATHE - IXD   CLOUDY    59  46  62 SE12      29.47F
OLATHE - OJC   CLOUDY    57  47  69 SE8       29.48F
LAWRENCE       PTSUNNY   60  49  66 E10       29.46F

$$

MOZ001>008-011>017-020>025-030>033-038>040-044>046-053-054-251400-
...NORTHERN AND CENTRAL MISSOURI...

CITY           SKY/WX    TMP DP  RH WIND       PRES   REMARKS
ST. JOSEPH     CLOUDY    61  51  70 SE5       29.47F
MOSBY            N/A     57  43  58 SE6       29.52R
WHITEMAN AFB   PTSUNNY   57  46  67 SE8       29.52F
CLINTON        CLOUDY    59  46  63 SE8       29.53F
SEDALIA        PTSUNNY   58  45  62 SE10      29.56F
WARSAW         NOT AVBL
CHILLICOTHE      N/A     57  42  57 S5        29.55S
KIRKSVILLE     CLOUDY    57  44  62 SE7       29.58F

$$

MOZ041-047>049-056>058-063>065-088>090-097-251400-
...EASTERN AND SOUTHERN MISSOURI...

CITY           SKY/WX    TMP DP  RH WIND       PRES   REMARKS
ST. LOUIS INTL PTSUNNY   63  50  62 S8        29.68S
SPIRIT OF STL  MOSUNNY   61  51  70 VRB6      29.66S
COLUMBIA       CLOUDY    57  46  66 SE8       29.62S
JEFFERSON CITY CLOUDY    60  45  57 E3        29.63R
ROLLA          CLOUDY    59  46  62 S13       29.63R
OSAGE BEACH    CLOUDY    58  44  60 S9        29.60F
SPRINGFIELD    CLOUDY    59  44  57 SE17G24   29.56F
BRANSON        PTSUNNY   55  45  67 SE8       29.63F
JOPLIN         MOSUNNY   61  48  62 SE10      29.51R
WEST PLAINS    SUNNY     56  46  69 S7        29.68S

$$

IAZ060-094-KSZ022-034>040-054-083-096-NEZ052-066-093-251400-
...KANSAS...SOUTHEAST NEBRASKA AND IOWA...

CITY           SKY/WX    TMP DP  RH WIND       PRES   REMARKS
TOPEKA         PTSUNNY   60  50  69 SE10      29.44F
MANHATTAN      CLOUDY    60  50  69 E3        29.41S
EMPORIA        PTSUNNY   59  50  72 S22G30    29.40F
CHANUTE        CLOUDY    63  49  60 S16       29.46S
WICHITA        CLOUDY    59  52  77 SE9       29.37R
OMAHA          CLOUDY    49  40  71 N20       29.45F
LINCOLN        PTSUNNY   49  41  74 SE8       29.52R
FALLS CITY     CLOUDY    56  50  80 E5        29.46R
LAMONI         LGT RAIN  55  41  59 E8        29.49F
DES MOINES     CLOUDY    58  42  55 SE9       29.53F

$$





USA.gov is the U.S. government's official web portal to all federal, state and local government web resources and services.